| time (UTC) | temp F | wind direction | speed knots | gust knots | rain 1hr in | rain 24hr in | rain mn in | humidity % | barometer mb |
| 20260504000014 | 50 | 210 | 4.3 | 6.1 | 0.00 | 0.00 | 0.00 | 89 | 1015.8 |
| 20260503235020 | 50 | 189 | 2.6 | 7.0 | 0.00 | 0.00 | 0.00 | 89 | 1015.7 |
| 20260503234019 | 51 | 229 | 4.3 | 7.0 | 0.00 | 0.00 | 0.00 | 89 | 1015.7 |
| 20260503232018 | 51 | 209 | 3.5 | 6.1 | 0.00 | 0.00 | 0.00 | 90 | 1015.5 |
| 20260503230015 | 51 | 200 | 3.5 | 6.1 | 0.00 | 0.00 | 0.00 | 89 | 1015.6 |
| 20260503225019 | 51 | 188 | 2.6 | 6.1 | 0.00 | 0.00 | 0.00 | 89 | 1015.8 |
| 20260503224018 | 51 | 160 | 2.6 | 6.1 | 0.00 | 0.00 | 0.00 | 88 | 1015.3 |
| 20260503222018 | 51 | 338 | 3.5 | 7.0 | 0.00 | 0.00 | 0.00 | 88 | 1015.5 |
| 20260503221019 | 51 | 137 | 2.6 | 7.0 | 0.00 | 0.00 | 0.00 | 88 | 1015.5 |
| 20260503220015 | 51 | 175 | 2.6 | 6.1 | 0.00 | 0.00 | 0.00 | 89 | 1015.5 |
| 20260503215018 | 51 | 195 | 4.3 | 6.1 | 0.00 | 0.00 | 0.00 | 88 | 1015.3 |
| 20260503214021 | 51 | 205 | 4.3 | 7.0 | 0.00 | 0.00 | 0.00 | 89 | 1015.3 |
| 20260503213018 | 51 | 194 | 4.3 | 7.0 | 0.00 | 0.00 | 0.00 | 89 | 1015.4 |
| 20260503211017 | 51 | 182 | 4.3 | 7.0 | 0.00 | 0.00 | 0.00 | 88 | 1015.0 |
| 20260503210014 | 52 | 161 | 4.3 | 8.7 | 0.00 | 0.00 | 0.00 | 89 | 1015.1 |
| 20260503205018 | 52 | 105 | 4.3 | 8.7 | 0.00 | 0.00 | 0.00 | 89 | 1015.0 |
| 20260503204017 | 52 | 25 | 2.6 | 6.1 | 0.00 | 0.00 | 0.00 | 90 | 1015.0 |
| 20260503203018 | 52 | 215 | 2.6 | 7.0 | 0.00 | 0.00 | 0.00 | 91 | 1014.8 |
| 20260503202017 | 52 | 168 | 4.3 | 7.0 | 0.00 | 0.00 | 0.00 | 90 | 1014.4 |
| 20260503200014 | 52 | 216 | 3.5 | 7.0 | 0.00 | 0.00 | 0.00 | 90 | 1014.3 |
| 20260503195016 | 52 | 193 | 4.3 | 10.4 | 0.00 | 0.00 | 0.00 | 90 | 1014.2 |
| 20260503194017 | 52 | 152 | 4.3 | 10.4 | 0.00 | 0.00 | 0.00 | 89 | 1014.0 |
| 20260503193017 | 52 | 128 | 3.5 | 7.0 | 0.00 | 0.00 | 0.00 | 89 | 1013.9 |
| 20260503192016 | 52 | 164 | 4.3 | 7.0 | 0.00 | 0.00 | 0.00 | 89 | 1014.0 |
| 20260503191016 | 52 | 220 | 5.2 | 7.0 | 0.00 | 0.00 | 0.00 | 89 | 1013.7 |
| 20260503190013 | 52 | 226 | 5.2 | 8.7 | 0.00 | 0.00 | 0.00 | 89 | 1013.7 |
| 20260503184017 | 53 | 187 | 5.2 | 8.7 | 0.00 | 0.00 | 0.00 | 88 | 1013.4 |
| 20260503183017 | 53 | 209 | 4.3 | 7.0 | 0.00 | 0.00 | 0.00 | 87 | 1013.4 |
| 20260503182017 | 53 | 223 | 4.3 | 7.8 | 0.00 | 0.00 | 0.00 | 86 | 1013.4 |
| 20260503181017 | 54 | 203 | 5.2 | 7.0 | 0.00 | 0.00 | 0.00 | 85 | 1013.2 |
| 20260503180013 | 54 | 186 | 4.3 | 6.1 | 0.00 | 0.00 | 0.00 | 84 | 1013.2 |
| 20260503175018 | 56 | 224 | 4.3 | 6.1 | 0.00 | 0.00 | 0.00 | 81 | 1013.2 |
| 20260503174016 | 55 | 212 | 3.5 | 7.8 | 0.00 | 0.00 | 0.00 | 82 | 1013.1 |
| 20260503172018 | 55 | 215 | 4.3 | 7.8 | 0.00 | 0.00 | 0.00 | 82 | 1013.1 |
| 20260503171018 | 56 | 213 | 5.2 | 7.8 | 0.00 | 0.00 | 0.00 | 79 | 1012.9 |
| 20260503131017 | 54 | 234 | 2.6 | 5.2 | 0.00 | 0.00 | 0.00 | 84 | 1013.0 |
| 20260503072014 | 52 | 98 | 3.5 | 7.0 | 0.00 | 0.00 | 0.00 | 83 | 1012.7 |
| 20260503071014 | 52 | 44 | 4.3 | 7.0 | 0.00 | 0.00 | 0.00 | 82 | 1012.4 |
| 20260503055015 | 51 | 160 | 4.3 | 7.0 | 0.00 | 0.00 | 0.00 | 85 | 1011.9 |
| 20260503054016 | 51 | 223 | 3.5 | 6.1 | 0.00 | 0.00 | 0.00 | 86 | 1012.0 |
| 20260503052014 | 51 | 243 | 4.3 | 7.0 | 0.00 | 0.00 | 0.00 | 84 | 1011.8 |
| 20260503051018 | 51 | 191 | 4.3 | 7.0 | 0.00 | 0.00 | 0.00 | 85 | 1011.7 |
| 20260503045016 | 51 | 216 | 4.3 | 6.1 | 0.00 | 0.00 | 0.00 | 86 | 1011.6 |
| 20260503044015 | 51 | 209 | 3.5 | 5.2 | 0.00 | 0.00 | 0.00 | 85 | 1011.6 |
| 20260503043014 | 51 | 205 | 2.6 | 6.1 | 0.00 | 0.00 | 0.00 | 86 | 1011.8 |
| 20260503041015 | 51 | 198 | 2.6 | 5.2 | 0.00 | 0.00 | 0.00 | 86 | 1011.8 |
| 20260503040014 | 51 | 173 | 2.6 | 6.1 | 0.00 | 0.00 | 0.00 | 86 | 1011.8 |
| 20260503034015 | 51 | 214 | 2.6 | 6.1 | 0.00 | 0.00 | 0.00 | 86 | 1012.0 |
| 20260503033015 | 51 | 107 | 1.7 | 6.1 | 0.00 | 0.00 | 0.00 | 86 | 1012.2 |
| 20260503032019 | 51 | 116 | 2.6 | 6.1 | 0.00 | 0.00 | 0.00 | 85 | 1012.0 |
| 20260503030018 | 51 | 67 | 2.6 | 4.3 | 0.00 | 0.00 | 0.00 | 85 | 1012.2 |
| 20260503025013 | 51 | 118 | 2.6 | 5.2 | 0.00 | 0.00 | 0.00 | 85 | 1012.2 |
| 20260503024014 | 51 | 57 | 2.6 | 7.0 | 0.00 | 0.00 | 0.00 | 84 | 1012.3 |
| 20260503023015 | 51 | 51 | 2.6 | 6.1 | 0.00 | 0.00 | 0.00 | 84 | 1012.2 |
| 20260503022015 | 51 | 66 | 4.3 | 7.0 | 0.00 | 0.00 | 0.00 | 85 | 1012.3 |
| 20260503021019 | 51 | 85 | 2.6 | 7.8 | 0.00 | 0.00 | 0.00 | 84 | 1012.1 |
| 20260503020016 | 51 | 85 | 2.6 | 6.1 | 0.00 | 0.00 | 0.00 | 84 | 1012.3 |
| 20260503014020 | 51 | 81 | 3.5 | 7.8 | 0.00 | 0.00 | 0.00 | 84 | 1012.3 |
| 20260503013021 | 52 | 92 | 3.5 | 7.0 | 0.00 | 0.00 | 0.00 | 84 | 1012.3 |
| 20260503012020 | 52 | 34 | 2.6 | 6.1 | 0.00 | 0.00 | 0.00 | 84 | 1012.2 |
| 20260503010016 | 51 | 86 | 3.5 | 7.8 | 0.00 | 0.00 | 0.00 | 86 | 1012.4 |
| 20260503005020 | 52 | 201 | 2.6 | 5.2 | 0.00 | 0.00 | 0.00 | 86 | 1012.4 |
| 20260503004019 | 51 | 212 | 2.6 | 5.2 | 0.00 | 0.00 | 0.00 | 87 | 1012.5 |
| 20260503003020 | 51 | 185 | 2.6 | 5.2 | 0.00 | 0.00 | 0.00 | 87 | 1012.5 |
| 20260503002021 | 52 | 134 | 2.6 | 4.3 | 0.00 | 0.00 | 0.00 | 87 | 1012.4 |
| 20260503001019 | 52 | 164 | 2.6 | 4.3 | 0.00 | 0.00 | 0.00 | 87 | 1012.4 |